AE6BH Weather Reports


Display with metric or nautical units.
time (UTC)temp
F
wind
direction
speed
MPH
gust
MPH
rain 1hr
in
rain 24hr
in
rain mn
in
humidity
%
barometer
mb
20260507115245 50 102 0.0 0.0 0.00 0.00 0.00 91 1016.2
20260507114741 49 102 0.0 0.0 0.00 0.00 0.00 91 1016.4
20260507114238 50 103 0.0 0.0 0.00 0.00 0.00 91 1016.3
20260507113736 50 98 0.0 0.0 0.00 0.00 0.00 91 1016.5
20260507113233 50 98 0.0 0.0 0.00 0.00 0.00 91 1016.4
20260507112731 50 98 0.0 0.0 0.00 0.00 0.00 91 1016.3
20260507112227 50 98 0.0 0.0 0.00 0.00 0.00 91 1016.5
20260507111725 50 98 0.0 0.0 0.00 0.00 0.00 91 1016.4
20260507111221 51 98 0.0 0.0 0.00 0.00 0.00 91 1016.4
20260507110717 50 98 0.0 0.0 0.00 0.00 0.00 91 1016.4
20260507110214 50 98 0.0 0.0 0.00 0.00 0.00 91 1016.3
20260507105711 50 98 0.0 0.0 0.00 0.00 0.00 91 1016.5
20260507105207 50 98 0.0 0.0 0.00 0.00 0.00 91 1016.6
20260507104704 50 98 0.0 0.0 0.00 0.00 0.00 91 1016.6
20260507104201 50 98 0.0 0.0 0.00 0.00 0.00 90 1016.6
20260507103656 50 98 0.0 0.0 0.00 0.00 0.00 89 1016.6
20260507103153 50 98 0.0 0.0 0.00 0.00 0.00 89 1016.4
20260507102650 50 98 0.0 0.0 0.00 0.00 0.00 89 1016.9
20260507102146 50 98 0.0 0.0 0.00 0.00 0.00 89 1016.9
20260507101642 50 98 0.0 0.0 0.00 0.00 0.00 89 1016.8
20260507101138 50 98 0.0 0.0 0.00 0.00 0.00 89 1016.8
20260507100635 50 98 0.0 0.0 0.00 0.00 0.00 88 1016.5
20260507100134 51 98 0.0 0.0 0.00 0.00 0.00 88 1016.7
20260507095631 50 99 0.0 0.0 0.00 0.00 0.00 88 1016.9
20260507095127 51 99 0.0 0.0 0.00 0.00 0.00 88 1016.9
20260507094624 51 99 0.0 0.0 0.00 0.00 0.00 88 1016.9
20260507094121 51 99 0.0 0.0 0.00 0.00 0.00 88 1017.1
20260507093618 51 98 0.0 0.0 0.00 0.00 0.00 88 1017.0
20260507093117 51 99 0.0 0.0 0.00 0.00 0.00 87 1017.0
20260507092613 50 99 0.0 0.0 0.00 0.00 0.00 86 1016.9
20260507092110 51 99 0.0 0.0 0.00 0.00 0.00 86 1017.0
20260507091607 51 99 0.0 0.0 0.00 0.00 0.00 86 1017.3
20260507091103 51 99 0.0 0.0 0.00 0.00 0.00 86 1017.2
20260507090558 51 99 0.0 0.0 0.00 0.00 0.00 86 1017.3
20260507090055 51 99 0.0 0.0 0.00 0.00 0.00 85 1017.1
20260507085553 51 100 0.0 0.0 0.00 0.00 0.00 85 1017.0
20260507085049 51 95 0.0 0.0 0.00 0.00 0.00 85 1017.4
20260507084546 51 95 0.0 0.0 0.00 0.00 0.00 85 1017.3
20260507084043 51 95 0.0 0.0 0.00 0.00 0.00 85 1017.3
20260507083539 51 97 0.0 0.0 0.00 0.00 0.00 84 1017.4
20260507083037 52 90 0.0 0.0 0.00 0.00 0.00 84 1017.4
20260507082532 52 90 0.0 0.0 0.00 0.00 0.00 84 1017.5
20260507082029 52 94 0.0 0.0 0.00 0.00 0.00 84 1017.4
20260507081525 52 75 0.0 0.0 0.00 0.00 0.00 84 1017.6
20260507081022 52 75 0.0 0.0 0.00 0.00 0.00 84 1017.7
20260507080518 52 75 0.0 0.0 0.00 0.00 0.00 84 1017.6
20260507080015 52 76 0.0 0.0 0.00 0.00 0.00 84 1017.6
20260507075510 52 75 0.0 0.0 0.00 0.00 0.00 84 1017.7
20260507075007 53 76 0.0 0.0 0.00 0.00 0.00 84 1017.7
20260507074503 53 76 0.0 0.0 0.00 0.00 0.00 84 1017.8
20260507074002 53 75 0.0 0.0 0.00 0.00 0.00 83 1017.9
20260507073457 53 75 0.0 0.0 0.00 0.00 0.00 83 1017.8
20260507072954 52 75 0.0 0.0 0.00 0.00 0.00 82 1017.8
20260507072452 52 75 0.0 0.0 0.00 0.00 0.00 82 1017.7
20260507071949 53 75 0.0 0.0 0.00 0.00 0.00 82 1018.1
20260507071446 53 75 0.0 0.0 0.00 0.00 0.00 82 1017.8
20260507070943 53 75 0.0 0.0 0.00 0.00 0.00 82 1018.1
20260507070440 53 77 0.0 0.0 0.00 0.00 0.00 82 1017.8
20260507065936 53 77 0.0 0.0 0.00 0.00 0.00 82 1018.0
20260507065433 54 77 0.0 0.0 0.00 0.00 0.00 82 1017.9
20260507064931 53 76 0.0 0.0 0.00 0.00 0.00 81 1017.8
20260507064429 54 94 0.0 0.0 0.00 0.00 0.00 81 1017.9
20260507063926 54 129 0.0 0.0 0.00 0.00 0.00 81 1017.9
20260507063423 54 77 0.0 0.0 0.00 0.00 0.00 81 1018.0
20260507062920 54 77 0.0 0.0 0.00 0.00 0.00 81 1017.8
20260507062417 54 77 0.0 0.0 0.00 0.00 0.00 81 1017.9
20260507061909 54 77 0.0 0.0 0.00 0.00 0.00 80 1018.0
20260507061407 55 77 0.0 0.0 0.00 0.00 0.00 80 1018.0
20260507060905 55 77 0.0 0.0 0.00 0.00 0.00 80 1018.0
20260507060401 55 77 0.0 0.0 0.00 0.00 0.00 80 1018.0
20260507055858 55 77 0.0 0.0 0.00 0.00 0.00 80 1018.0
20260507055353 55 78 0.0 0.0 0.00 0.00 0.00 79 1017.9
20260507054850 56 77 0.0 0.0 0.00 0.00 0.00 79 1018.3
20260507054346 56 77 0.0 0.0 0.00 0.00 0.00 78 1017.9
20260507053844 56 78 0.0 0.0 0.00 0.00 0.00 78 1017.8
20260507053341 57 62 0.0 0.0 0.00 0.00 0.00 78 1017.9
20260507052840 57 92 0.0 0.0 0.00 0.00 0.00 78 1017.9
20260507052336 57 94 0.0 0.0 0.00 0.00 0.00 77 1017.8
20260507051834 57 88 0.0 0.0 0.00 0.00 0.00 77 1017.9
20260507051331 58 120 0.0 0.0 0.00 0.00 0.00 77 1018.0
20260507050828 58 125 0.0 0.0 0.00 0.00 0.00 78 1017.9
20260507050324 58 83 0.0 0.0 0.00 0.00 0.00 78 1017.9
20260507045822 58 105 0.0 0.0 0.00 0.00 0.00 78 1017.9
20260507045318 58 82 0.0 0.0 0.00 0.00 0.00 77 1017.8
20260507044815 58 76 0.0 0.0 0.00 0.00 0.00 77 1017.8
20260507044312 58 80 0.0 0.0 0.00 0.00 0.00 77 1017.8
20260507043808 59 98 0.0 0.0 0.00 0.00 0.00 77 1017.8
20260507043304 58 65 0.0 0.0 0.00 0.00 0.00 77 1017.8
20260507042801 58 78 0.0 0.0 0.00 0.00 0.00 76 1017.9
20260507042256 58 83 0.0 0.0 0.00 0.00 0.00 75 1017.6
20260507041754 58 65 0.0 0.0 0.00 0.00 0.00 75 1017.8
20260507041250 59 75 0.0 0.0 0.00 0.00 0.00 75 1017.7
20260507040747 59 67 0.0 0.0 0.00 0.00 0.00 75 1017.8
20260507040243 59 69 0.0 0.0 0.00 0.00 0.00 74 1017.6
20260507035739 59 71 0.0 0.0 0.00 0.00 0.00 74 1017.7
20260507035234 58 75 0.0 0.0 0.00 0.00 0.00 72 1017.6
20260507034733 59 82 0.0 0.0 0.00 0.00 0.00 71 1017.7
20260507034229 59 83 0.0 0.0 0.00 0.00 0.00 71 1017.5
20260507033728 59 79 0.0 0.0 0.00 0.00 0.00 71 1017.4
20260507033225 59 61 0.0 0.0 0.00 0.00 0.00 70 1017.3
20260507032722 60 72 0.0 0.0 0.00 0.00 0.00 69 1017.2
20260507032218 60 92 0.0 0.0 0.00 0.00 0.00 68 1017.5
20260507031715 60 89 0.0 0.0 0.00 0.00 0.00 67 1017.4
20260507031212 60 88 0.0 0.0 0.00 0.00 0.00 67 1017.2
20260507030708 60 70 0.0 0.0 0.00 0.00 0.00 66 1017.2
20260507030206 61 75 0.0 0.0 0.00 0.00 0.00 66 1017.2
20260507025703 61 72 0.0 0.0 0.00 0.00 0.00 65 1017.2
20260507025200 61 54 0.0 1.0 0.00 0.00 0.00 65 1017.1
20260507024658 62 71 0.0 0.0 0.00 0.00 0.00 64 1017.0
20260507024155 62 56 1.0 1.0 0.00 0.00 0.00 64 1017.1
20260507023650 62 95 0.0 0.0 0.00 0.00 0.00 63 1017.2
20260507023148 62 138 1.0 1.0 0.00 0.00 0.00 62 1017.1
20260507022645 63 91 1.0 1.0 0.00 0.00 0.00 61 1016.9
20260507022140 63 116 1.0 1.0 0.00 0.00 0.00 61 1016.9
20260507021637 63 55 0.0 1.0 0.00 0.00 0.00 60 1017.0
20260507021132 64 147 1.0 1.0 0.00 0.00 0.00 59 1017.0
20260507020631 64 83 0.0 0.0 0.00 0.00 0.00 59 1016.8
20260507020127 64 114 1.0 1.0 0.00 0.00 0.00 58 1016.9
20260507015625 65 94 3.0 3.0 0.00 0.00 0.00 57 1016.9
20260507015122 65 169 3.0 3.0 0.00 0.00 0.00 57 1016.7
20260507014619 65 23 1.0 1.0 0.00 0.00 0.00 56 1016.6
20260507014115 65 83 1.0 1.0 0.00 0.00 0.00 57 1016.8
20260507013612 66 32 0.0 1.0 0.00 0.00 0.00 57 1016.7
20260507013109 66 276 3.0 3.0 0.00 0.00 0.00 57 1016.5
20260507012606 66 2 2.0 2.0 0.00 0.00 0.00 57 1016.8
20260507012101 66 326 0.0 1.0 0.00 0.00 0.00 55 1016.6
20260507011600 66 358 1.0 1.0 0.00 0.00 0.00 55 1016.7
20260507011056 66 6 1.0 1.0 0.00 0.00 0.00 55 1016.4
20260507010550 67 102 1.0 1.0 0.00 0.00 0.00 55 1016.8
20260507010047 67 46 0.0 1.0 0.00 0.00 0.00 55 1016.5
20260507005544 68 43 1.0 1.0 0.00 0.00 0.00 55 1016.5
20260507005040 67 204 1.0 2.0 0.00 0.00 0.00 57 1016.5
20260507004538 67 323 1.0 1.0 0.00 0.00 0.00 58 1016.5
20260507004035 67 323 2.0 3.0 0.00 0.00 0.00 56 1016.5
20260507003531 68 53 1.0 1.0 0.00 0.00 0.00 56 1016.6
20260507003026 67 301 1.0 2.0 0.00 0.00 0.00 56 1016.5
20260507002523 68 235 2.0 2.0 0.00 0.00 0.00 56 1016.6
20260507002019 68 218 2.0 2.0 0.00 0.00 0.00 55 1016.3
20260507001515 68 286 2.0 2.0 0.00 0.00 0.00 56 1016.3
20260507001013 68 336 3.0 5.0 0.00 0.00 0.00 54 1016.3
20260507000509 69 219 2.0 3.0 0.00 0.00 0.00 54 1016.3
20260507000005 68 147 2.0 2.0 0.00 0.00 0.00 53 1016.3
20260506235502 68 148 2.0 2.0 0.00 0.00 0.00 53 1016.4
20260506234958 69 245 4.0 6.0 0.00 0.00 0.00 53 1016.0
20260506234455 68 291 1.0 1.0 0.00 0.00 0.00 53 1016.4
20260506233952 69 62 2.0 3.0 0.00 0.00 0.00 53 1016.1
20260506233449 68 48 2.0 3.0 0.00 0.00 0.00 54 1016.1
20260506232945 68 61 3.0 3.0 0.00 0.00 0.00 53 1016.1
20260506232442 68 261 4.0 5.0 0.00 0.00 0.00 54 1016.4
20260506231938 69 331 4.0 6.0 0.00 0.00 0.00 53 1016.1
20260506231436 69 224 3.0 3.0 0.00 0.00 0.00 52 1016.4
20260506230932 69 296 1.0 2.0 0.00 0.00 0.00 53 1016.3
20260506230428 69 302 3.0 3.0 0.00 0.00 0.00 53 1016.3
20260506225925 68 316 4.0 6.0 0.00 0.00 0.00 54 1016.5
20260506225423 69 161 2.0 2.0 0.00 0.00 0.00 53 1016.3
20260506224920 69 178 2.0 3.0 0.00 0.00 0.00 52 1016.6
20260506224417 68 79 0.0 1.0 0.00 0.00 0.00 54 1016.4
20260506223913 69 236 2.0 3.0 0.00 0.00 0.00 53 1016.4
20260506223409 69 79 2.0 3.0 0.00 0.00 0.00 53 1016.5
20260506222906 70 191 2.0 2.0 0.00 0.00 0.00 51 1016.5
20260506222402 70 266 3.0 3.0 0.00 0.00 0.00 50 1016.5
20260506221900 71 93 1.0 2.0 0.00 0.00 0.00 51 1016.5
20260506221356 70 287 2.0 3.0 0.00 0.00 0.00 51 1016.6
20260506220854 71 169 4.0 6.0 0.00 0.00 0.00 51 1016.7
20260506220349 71 238 2.0 3.0 0.00 0.00 0.00 51 1016.8
20260506215846 71 309 2.0 2.0 0.00 0.00 0.00 52 1016.6
20260506215342 71 63 2.0 2.0 0.00 0.00 0.00 52 1016.7
20260506214838 71 269 2.0 3.0 0.00 0.00 0.00 52 1016.6
20260506214335 71 292 3.0 3.0 0.00 0.00 0.00 52 1016.7
20260506213834 71 50 1.0 2.0 0.00 0.00 0.00 52 1016.8
20260506213330 72 118 2.0 3.0 0.00 0.00 0.00 51 1016.9
20260506212828 71 214 3.0 3.0 0.00 0.00 0.00 52 1017.0
20260506212323 72 322 2.0 2.0 0.00 0.00 0.00 51 1017.1
20260506211819 72 335 3.0 3.0 0.00 0.00 0.00 50 1016.9
20260506211315 72 31 2.0 3.0 0.00 0.00 0.00 51 1016.8
20260506210813 73 281 2.0 3.0 0.00 0.00 0.00 50 1017.0
20260506210309 72 84 1.0 2.0 0.00 0.00 0.00 51 1017.1
20260506205806 72 32 2.0 3.0 0.00 0.00 0.00 49 1016.9
20260506205305 72 85 1.0 2.0 0.00 0.00 0.00 50 1017.0
20260506204759 72 192 2.0 2.0 0.00 0.00 0.00 49 1016.9
20260506204256 71 302 4.0 6.0 0.00 0.00 0.00 50 1017.1
20260506203754 71 271 1.0 2.0 0.00 0.00 0.00 50 1017.0
20260506203251 72 195 2.0 2.0 0.00 0.00 0.00 50 1017.2
20260506202748 71 289 2.0 3.0 0.00 0.00 0.00 52 1017.2
20260506202245 71 323 3.0 5.0 0.00 0.00 0.00 50 1017.4
20260506201741 71 266 1.0 2.0 0.00 0.00 0.00 50 1017.2
20260506201238 72 316 1.0 1.0 0.00 0.00 0.00 48 1017.2
20260506200735 73 263 3.0 3.0 0.00 0.00 0.00 48 1017.2
20260506200232 72 82 1.0 1.0 0.00 0.00 0.00 48 1017.5
20260506195728 72 192 2.0 3.0 0.00 0.00 0.00 48 1017.2
20260506195225 75 215 1.0 2.0 0.00 0.00 0.00 45 1017.2
20260506194722 75 87 1.0 2.0 0.00 0.00 0.00 44 1017.1
20260506194218 74 328 2.0 2.0 0.00 0.00 0.00 45 1017.4
20260506193716 72 208 1.0 2.0 0.00 0.00 0.00 47 1017.5
20260506193213 73 68 1.0 1.0 0.00 0.00 0.00 46 1017.6
20260506192710 73 49 3.0 3.0 0.00 0.00 0.00 46 1017.7
20260506192206 72 296 3.0 3.0 0.00 0.00 0.00 46 1017.6
20260506191703 72 323 2.0 5.0 0.00 0.00 0.00 46 1017.7
20260506191159 73 184 6.0 7.0 0.00 0.00 0.00 45 1017.6
20260506190657 73 159 2.0 3.0 0.00 0.00 0.00 46 1017.6
20260506190153 71 312 2.0 3.0 0.00 0.00 0.00 47 1017.7
20260506185650 71 335 4.0 5.0 0.00 0.00 0.00 45 1018.0
20260506185146 70 193 4.0 5.0 0.00 0.00 0.00 47 1017.7
20260506184644 70 190 3.0 5.0 0.00 0.00 0.00 48 1018.0
20260506184141 71 207 1.0 2.0 0.00 0.00 0.00 46 1018.2
20260506183638 72 127 1.0 1.0 0.00 0.00 0.00 46 1017.9
20260506183134 72 237 3.0 6.0 0.00 0.00 0.00 44 1018.2
20260506182632 70 124 1.0 2.0 0.00 0.00 0.00 47 1018.2
20260506182128 70 29 1.0 1.0 0.00 0.00 0.00 45 1018.1
20260506181626 69 52 2.0 2.0 0.00 0.00 0.00 47 1018.2
20260506181123 70 297 3.0 3.0 0.00 0.00 0.00 45 1018.2
20260506180620 70 333 2.0 3.0 0.00 0.00 0.00 46 1018.4
20260506180116 69 313 4.0 5.0 0.00 0.00 0.00 48 1018.3
20260506175613 70 140 3.0 3.0 0.00 0.00 0.00 46 1018.4
20260506175109 70 302 1.0 2.0 0.00 0.00 0.00 47 1018.6
20260506174608 68 46 1.0 1.0 0.00 0.00 0.00 51 1018.4
20260506174104 69 327 3.0 6.0 0.00 0.00 0.00 48 1018.4
20260506173602 69 181 3.0 3.0 0.00 0.00 0.00 49 1018.6
20260506173058 68 8 2.0 2.0 0.00 0.00 0.00 51 1018.5
20260506172556 66 309 2.0 3.0 0.00 0.00 0.00 52 1018.5
20260506172052 66 96 1.0 2.0 0.00 0.00 0.00 52 1018.8
20260506171549 67 36 1.0 2.0 0.00 0.00 0.00 52 1018.7
20260506171046 67 332 3.0 5.0 0.00 0.00 0.00 51 1018.7
20260506170538 66 65 1.0 1.0 0.00 0.00 0.00 51 1018.7
20260506170036 66 63 2.0 2.0 0.00 0.00 0.00 53 1018.9
20260506165534 66 170 2.0 2.0 0.00 0.00 0.00 52 1018.8
20260506165030 67 301 2.0 2.0 0.00 0.00 0.00 52 1018.7
20260506164527 66 70 0.0 1.0 0.00 0.00 0.00 53 1018.9
20260506164024 65 50 1.0 1.0 0.00 0.00 0.00 56 1018.9
20260506163520 65 68 2.0 2.0 0.00 0.00 0.00 56 1018.8
20260506163016 65 40 3.0 5.0 0.00 0.00 0.00 59 1018.8
20260506162512 64 91 1.0 1.0 0.00 0.00 0.00 62 1018.9
20260506162010 63 108 1.0 1.0 0.00 0.00 0.00 64 1018.7
20260506161507 62 224 2.0 2.0 0.00 0.00 0.00 67 1018.6
20260506161004 64 228 3.0 3.0 0.00 0.00 0.00 64 1018.8
20260506160502 63 316 1.0 2.0 0.00 0.00 0.00 65 1018.7
20260506155958 62 41 1.0 1.0 0.00 0.00 0.00 65 1018.6
20260506155456 62 55 0.0 0.0 0.00 0.00 0.00 66 1018.8
20260506153628 61 67 1.0 1.0 0.00 0.00 0.00 67 1018.8
20260506153126 61 83 0.0 1.0 0.00 0.00 0.00 69 1018.9
20260506152622 61 76 0.0 0.0 0.00 0.00 0.00 67 1019.1
20260506152120 61 84 0.0 0.0 0.00 0.00 0.00 69 1018.8
20260506151619 60 152 0.0 0.0 0.00 0.00 0.00 69 1018.7
20260506151115 59 79 0.0 0.0 0.00 0.00 0.00 71 1018.9
20260506150612 58 124 0.0 0.0 0.00 0.00 0.00 75 1018.9
20260506150109 57 82 0.0 0.0 0.00 0.00 0.00 79 1018.9
20260506145606 55 110 0.0 0.0 0.00 0.00 0.00 82 1018.9
20260506145103 53 88 0.0 0.0 0.00 0.00 0.00 85 1019.0
20260506144600 53 65 0.0 0.0 0.00 0.00 0.00 88 1018.9
20260506144056 52 51 0.0 0.0 0.00 0.00 0.00 92 1018.8
20260506143555 52 141 0.0 0.0 0.00 0.00 0.00 93 1018.9
20260506143052 51 157 0.0 0.0 0.00 0.00 0.00 93 1019.0
20260506142550 51 131 0.0 0.0 0.00 0.00 0.00 93 1018.8
20260506142048 51 146 0.0 0.0 0.00 0.00 0.00 93 1018.8
20260506141546 50 90 0.0 0.0 0.00 0.00 0.00 93 1018.7
20260506141044 50 105 0.0 0.0 0.00 0.00 0.00 93 1018.6
20260506140541 50 72 0.0 0.0 0.00 0.00 0.00 93 1018.8
20260506140038 50 71 0.0 0.0 0.00 0.00 0.00 93 1018.7
20260506135535 49 71 0.0 0.0 0.00 0.00 0.00 93 1018.7
20260506135031 49 71 0.0 0.0 0.00 0.00 0.00 93 1018.6
20260506134528 48 71 0.0 0.0 0.00 0.00 0.00 93 1018.6
20260506134024 47 71 0.0 0.0 0.00 0.00 0.00 93 1018.5
20260506133521 46 70 0.0 0.0 0.00 0.00 0.00 93 1018.6
20260506133018 46 70 0.0 0.0 0.00 0.00 0.00 93 1018.6
20260506132515 46 70 0.0 0.0 0.00 0.00 0.00 93 1018.6
20260506132012 45 70 0.0 0.0 0.00 0.00 0.00 93 1018.4
20260506131509 45 70 0.0 0.0 0.00 0.00 0.00 93 1018.4
20260506131006 45 70 0.0 0.0 0.00 0.00 0.00 93 1018.5
20260506130503 45 70 0.0 0.0 0.00 0.00 0.00 93 1018.2
20260506130000 45 70 0.0 0.0 0.00 0.00 0.00 92 1018.3
20260506125458 45 70 0.0 0.0 0.00 0.00 0.00 92 1017.9
20260506124955 45 70 0.0 0.0 0.00 0.00 0.00 92 1017.9
20260506124453 45 70 0.0 0.0 0.00 0.00 0.00 92 1018.1
20260506123951 46 70 0.0 0.0 0.00 0.00 0.00 92 1017.9
20260506123449 46 70 0.0 0.0 0.00 0.00 0.00 92 1018.0
20260506122946 46 70 0.0 0.0 0.00 0.00 0.00 92 1017.9
20260506122443 46 70 0.0 0.0 0.00 0.00 0.00 92 1017.9
20260506121941 46 70 0.0 0.0 0.00 0.00 0.00 92 1018.0
20260506121438 46 70 0.0 0.0 0.00 0.00 0.00 92 1018.0
20260506120935 46 70 0.0 0.0 0.00 0.00 0.00 92 1018.0
20260506120432 46 70 0.0 0.0 0.00 0.00 0.00 92 1017.9
20260506115929 46 70 0.0 0.0 0.00 0.00 0.00 92 1017.9